| time (UTC) | temp F | wind direction | speed MPH | gust MPH | rain 1hr in | rain 24hr in | rain mn in | humidity % | barometer mb |
| 20260903180236 | 86 | 257 | 6.0 | 13.0 | 0.00 | 0.00 | 0.00 | 17 | 1008.2 |
| 20260903175233 | 84 | 50 | 4.0 | 17.0 | 0.00 | 0.00 | 0.00 | 16 | 1008.6 |
| 20260903174301 | 84 | 263 | 6.0 | 12.0 | 0.00 | 0.00 | 0.00 | 17 | 1008.7 |
| 20260903173243 | 84 | 182 | 7.0 | 14.0 | 0.00 | 0.00 | 0.00 | 16 | 1008.7 |
| 20260903172243 | 84 | 239 | 5.0 | 11.0 | 0.00 | 0.00 | 0.00 | 19 | 1008.7 |
| 20260903171249 | 83 | 289 | 7.0 | 12.0 | 0.00 | 0.00 | 0.00 | 17 | 1008.7 |
| 20260903170235 | 83 | 215 | 8.0 | 17.0 | 0.00 | 0.00 | 0.00 | 18 | 1008.7 |
| 20260903165236 | 82 | 218 | 8.0 | 14.0 | 0.00 | 0.00 | 0.00 | 18 | 1008.9 |
| 20260903164259 | 82 | 277 | 4.0 | 14.0 | 0.00 | 0.00 | 0.00 | 19 | 1008.7 |
| 20260903163301 | 81 | 241 | 8.0 | 12.0 | 0.00 | 0.00 | 0.00 | 18 | 1008.7 |
| 20260903162241 | 81 | 188 | 3.0 | 9.0 | 0.00 | 0.00 | 0.00 | 21 | 1008.8 |
| 20260903161302 | 80 | 202 | 7.0 | 13.0 | 0.00 | 0.00 | 0.00 | 21 | 1008.8 |
| 20260903160244 | 79 | 227 | 7.0 | 14.0 | 0.00 | 0.00 | 0.00 | 23 | 1008.8 |
| 20260903155242 | 78 | 224 | 5.0 | 11.0 | 0.00 | 0.00 | 0.00 | 25 | 1008.8 |
| 20260903154245 | 77 | 174 | 6.0 | 11.0 | 0.00 | 0.00 | 0.00 | 26 | 1008.8 |
| 20260903153249 | 76 | 246 | 6.0 | 13.0 | 0.00 | 0.00 | 0.00 | 26 | 1008.8 |
| 20260903152233 | 75 | 219 | 10.0 | 14.0 | 0.00 | 0.00 | 0.00 | 26 | 1008.9 |
| 20260903151248 | 74 | 217 | 5.0 | 12.0 | 0.00 | 0.00 | 0.00 | 26 | 1009.0 |
| 20260903150232 | 74 | 184 | 9.0 | 13.0 | 0.00 | 0.00 | 0.00 | 26 | 1009.0 |
| 20260903145237 | 73 | 202 | 9.0 | 17.0 | 0.00 | 0.00 | 0.00 | 27 | 1009.0 |
| 20260903144234 | 72 | 175 | 7.0 | 11.0 | 0.00 | 0.00 | 0.00 | 28 | 1009.0 |
| 20260903143239 | 69 | 360 | 7.0 | 12.0 | 0.00 | 0.00 | 0.00 | 32 | 1009.0 |
| 20260903142305 | 68 | 227 | 8.0 | 11.0 | 0.00 | 0.00 | 0.00 | 34 | 1009.1 |
| 20260903141309 | 67 | 214 | 8.0 | 14.0 | 0.00 | 0.00 | 0.00 | 35 | 1008.9 |
| 20260903140259 | 66 | 194 | 9.0 | 16.0 | 0.00 | 0.00 | 0.00 | 36 | 1008.9 |
| 20260903135318 | 65 | 197 | 7.0 | 14.0 | 0.00 | 0.00 | 0.00 | 37 | 1008.8 |
| 20260903134259 | 65 | 212 | 7.0 | 11.0 | 0.00 | 0.00 | 0.00 | 38 | 1008.7 |
| 20260903133241 | 64 | 360 | 9.0 | 14.0 | 0.00 | 0.00 | 0.00 | 39 | 1008.7 |
| 20260903132244 | 63 | 178 | 9.0 | 14.0 | 0.00 | 0.00 | 0.00 | 40 | 1008.7 |
| 20260903131243 | 64 | 202 | 8.0 | 14.0 | 0.00 | 0.00 | 0.00 | 40 | 1008.4 |
| 20260903130235 | 64 | 213 | 8.0 | 11.0 | 0.00 | 0.00 | 0.00 | 39 | 1008.4 |
| 20260903125305 | 64 | 205 | 5.0 | 12.0 | 0.00 | 0.00 | 0.00 | 38 | 1008.2 |
| 20260903124250 | 65 | 194 | 7.0 | 14.0 | 0.00 | 0.00 | 0.00 | 37 | 1008.1 |
| 20260903123303 | 64 | 188 | 9.0 | 14.0 | 0.00 | 0.00 | 0.00 | 37 | 1008.1 |
| 20260903122247 | 63 | 360 | 8.0 | 14.0 | 0.00 | 0.00 | 0.00 | 39 | 1007.9 |
| 20260903121238 | 63 | 196 | 8.0 | 11.0 | 0.00 | 0.00 | 0.00 | 40 | 1007.8 |
| 20260903120241 | 62 | 202 | 7.0 | 9.0 | 0.00 | 0.00 | 0.00 | 42 | 1007.8 |
| 20260903115306 | 60 | 360 | 6.0 | 9.0 | 0.00 | 0.00 | 0.00 | 46 | 1007.8 |
| 20260903114244 | 59 | 188 | 2.0 | 6.0 | 0.00 | 0.00 | 0.00 | 49 | 1008.0 |
| 20260903113247 | 56 | 360 | 2.0 | 3.0 | 0.00 | 0.00 | 0.00 | 60 | 1008.0 |
| 20260903112234 | 56 | 186 | 0.0 | 2.0 | 0.00 | 0.00 | 0.00 | 62 | 1007.8 |
| 20260903111238 | 56 | 186 | 0.0 | 2.0 | 0.00 | 0.00 | 0.00 | 63 | 1007.8 |
| 20260903110245 | 56 | 360 | 0.0 | 2.0 | 0.00 | 0.00 | 0.00 | 62 | 1007.8 |
| 20260903105246 | 56 | 360 | 2.0 | 4.0 | 0.00 | 0.00 | 0.00 | 62 | 1007.7 |
| 20260903104234 | 57 | 360 | 1.0 | 2.0 | 0.00 | 0.00 | 0.00 | 62 | 1007.7 |
| 20260903103243 | 58 | 360 | 0.0 | 1.0 | 0.00 | 0.00 | 0.00 | 60 | 1007.7 |
| 20260903102245 | 58 | 186 | 2.0 | 3.0 | 0.00 | 0.00 | 0.00 | 58 | 1007.6 |
| 20260903101301 | 59 | 186 | 2.0 | 3.0 | 0.00 | 0.00 | 0.00 | 57 | 1007.6 |
| 20260903100238 | 61 | 360 | 0.0 | 2.0 | 0.00 | 0.00 | 0.00 | 54 | 1007.6 |
| 20260903095248 | 61 | 360 | 0.0 | 4.0 | 0.00 | 0.00 | 0.00 | 53 | 1007.7 |
| 20260903094305 | 61 | 186 | 3.0 | 5.0 | 0.00 | 0.00 | 0.00 | 53 | 1007.7 |
| 20260903093312 | 62 | 184 | 4.0 | 10.0 | 0.00 | 0.00 | 0.00 | 51 | 1007.7 |
| 20260903092245 | 62 | 188 | 7.0 | 9.0 | 0.00 | 0.00 | 0.00 | 52 | 1007.9 |
| 20260903091243 | 62 | 182 | 6.0 | 8.0 | 0.00 | 0.00 | 0.00 | 52 | 1008.0 |
| 20260903090248 | 62 | 171 | 0.0 | 2.0 | 0.00 | 0.00 | 0.00 | 54 | 1008.0 |
| 20260903085245 | 61 | 171 | 1.0 | 8.0 | 0.00 | 0.00 | 0.00 | 54 | 1007.8 |
| 20260903084303 | 58 | 167 | 5.0 | 7.0 | 0.00 | 0.00 | 0.00 | 62 | 1008.0 |
| 20260903083247 | 59 | 167 | 4.0 | 5.0 | 0.00 | 0.00 | 0.00 | 60 | 1008.0 |
| 20260903082247 | 60 | 167 | 2.0 | 5.0 | 0.00 | 0.00 | 0.00 | 59 | 1008.0 |
| 20260903081238 | 61 | 360 | 4.0 | 5.0 | 0.00 | 0.00 | 0.00 | 58 | 1008.1 |
| 20260903080245 | 61 | 167 | 3.0 | 5.0 | 0.00 | 0.00 | 0.00 | 57 | 1008.1 |
| 20260903075237 | 62 | 360 | 3.0 | 4.0 | 0.00 | 0.00 | 0.00 | 57 | 1008.1 |
| 20260903074313 | 62 | 167 | 3.0 | 5.0 | 0.00 | 0.00 | 0.00 | 57 | 1008.2 |
| 20260903073249 | 62 | 167 | 3.0 | 6.0 | 0.00 | 0.00 | 0.00 | 56 | 1008.2 |
| 20260903072310 | 62 | 360 | 3.0 | 5.0 | 0.00 | 0.00 | 0.00 | 58 | 1008.2 |
| 20260903071253 | 62 | 169 | 3.0 | 4.0 | 0.00 | 0.00 | 0.00 | 58 | 1008.5 |
| 20260903070236 | 62 | 169 | 4.0 | 6.0 | 0.00 | 0.00 | 0.00 | 59 | 1008.5 |
| 20260903065252 | 62 | 164 | 5.0 | 6.0 | 0.00 | 0.00 | 0.00 | 58 | 1008.5 |
| 20260903064304 | 62 | 169 | 4.0 | 7.0 | 0.00 | 0.00 | 0.00 | 60 | 1008.5 |
| 20260903063252 | 62 | 166 | 4.0 | 7.0 | 0.00 | 0.00 | 0.00 | 60 | 1008.5 |
| 20260903062312 | 63 | 360 | 4.0 | 6.0 | 0.00 | 0.00 | 0.00 | 59 | 1008.2 |
| 20260903061239 | 64 | 166 | 4.0 | 6.0 | 0.00 | 0.00 | 0.00 | 58 | 1008.5 |
| 20260903060238 | 63 | 167 | 3.0 | 7.0 | 0.00 | 0.00 | 0.00 | 58 | 1008.5 |
| 20260903055251 | 64 | 165 | 5.0 | 7.0 | 0.00 | 0.00 | 0.00 | 57 | 1008.5 |
| 20260903054259 | 63 | 229 | 5.0 | 6.0 | 0.00 | 0.00 | 0.00 | 59 | 1008.7 |
| 20260903053244 | 62 | 360 | 2.0 | 5.0 | 0.00 | 0.00 | 0.00 | 58 | 1008.7 |
| 20260903052235 | 65 | 286 | 4.0 | 5.0 | 0.00 | 0.00 | 0.00 | 55 | 1008.8 |
| 20260903051240 | 65 | 360 | 1.0 | 5.0 | 0.00 | 0.00 | 0.00 | 53 | 1009.1 |
| 20260903050245 | 66 | 360 | 2.0 | 3.0 | 0.00 | 0.00 | 0.00 | 52 | 1009.1 |
| 20260903045258 | 67 | 344 | 0.0 | 2.0 | 0.00 | 0.00 | 0.00 | 49 | 1008.7 |
| 20260903044242 | 67 | 345 | 0.0 | 3.0 | 0.00 | 0.00 | 0.00 | 49 | 1009.2 |
| 20260903043247 | 67 | 360 | 1.0 | 3.0 | 0.00 | 0.00 | 0.00 | 49 | 1009.2 |
| 20260903042235 | 67 | 360 | 1.0 | 3.0 | 0.00 | 0.00 | 0.00 | 49 | 1008.7 |
| 20260903041240 | 67 | 360 | 0.0 | 3.0 | 0.00 | 0.00 | 0.00 | 49 | 1008.7 |
| 20260903040250 | 68 | 360 | 1.0 | 3.0 | 0.00 | 0.00 | 0.00 | 49 | 1008.7 |
| 20260903035251 | 68 | 360 | 0.0 | 0.0 | 0.00 | 0.00 | 0.00 | 48 | 1008.7 |
| 20260903034247 | 69 | 360 | 1.0 | 6.0 | 0.00 | 0.00 | 0.00 | 47 | 1008.7 |
| 20260903032310 | 70 | 330 | 0.0 | 5.0 | 0.00 | 0.00 | 0.00 | 45 | 1008.2 |
| 20260903031312 | 71 | 334 | 3.0 | 6.0 | 0.00 | 0.00 | 0.00 | 42 | 1008.4 |
| 20260903030312 | 72 | 284 | 4.0 | 9.0 | 0.00 | 0.00 | 0.00 | 39 | 1008.4 |
| 20260903025239 | 74 | 19 | 8.0 | 17.0 | 0.00 | 0.00 | 0.00 | 35 | 1008.1 |
| 20260903024246 | 75 | 360 | 5.0 | 13.0 | 0.00 | 0.00 | 0.00 | 32 | 1008.5 |
| 20260903023255 | 75 | 304 | 7.0 | 10.0 | 0.00 | 0.00 | 0.00 | 30 | 1008.5 |
| 20260903022259 | 75 | 306 | 5.0 | 9.0 | 0.00 | 0.00 | 0.00 | 30 | 1007.5 |
| 20260903021244 | 76 | 360 | 5.0 | 11.0 | 0.00 | 0.00 | 0.00 | 29 | 1006.9 |
| 20260903020233 | 77 | 360 | 7.0 | 12.0 | 0.00 | 0.00 | 0.00 | 27 | 1006.9 |
| 20260903015240 | 77 | 5 | 7.0 | 14.0 | 0.00 | 0.00 | 0.00 | 26 | 1006.8 |
| 20260903014251 | 78 | 5 | 8.0 | 12.0 | 0.00 | 0.00 | 0.00 | 26 | 1006.6 |
| 20260903013311 | 79 | 355 | 7.0 | 20.0 | 0.00 | 0.00 | 0.00 | 25 | 1006.6 |
| 20260903012252 | 80 | 360 | 5.0 | 12.0 | 0.00 | 0.00 | 0.00 | 27 | 1006.2 |
| 20260903011256 | 80 | 360 | 5.0 | 11.0 | 0.00 | 0.00 | 0.00 | 27 | 1006.2 |
| 20260903010304 | 81 | 360 | 5.0 | 10.0 | 0.00 | 0.00 | 0.00 | 26 | 1006.2 |
| 20260903005246 | 82 | 19 | 4.0 | 9.0 | 0.00 | 0.00 | 0.00 | 24 | 1006.2 |
| 20260903004312 | 83 | 15 | 5.0 | 8.0 | 0.00 | 0.00 | 0.00 | 24 | 1006.1 |
| 20260903003253 | 84 | 9 | 6.0 | 11.0 | 0.00 | 0.00 | 0.00 | 23 | 1006.1 |
| 20260903002236 | 83 | 17 | 4.0 | 10.0 | 0.00 | 0.00 | 0.00 | 23 | 1006.2 |
| 20260903001239 | 83 | 15 | 5.0 | 9.0 | 0.00 | 0.00 | 0.00 | 23 | 1006.1 |
| 20260903000235 | 84 | 13 | 7.0 | 10.0 | 0.00 | 0.00 | 0.00 | 22 | 1006.1 |
| 20260902235235 | 85 | 24 | 5.0 | 9.0 | 0.00 | 0.00 | 0.00 | 21 | 1006.1 |
| 20260902234243 | 87 | 53 | 7.0 | 14.0 | 0.00 | 0.00 | 0.00 | 20 | 1006.1 |
| 20260902233249 | 88 | 65 | 7.0 | 16.0 | 0.00 | 0.00 | 0.00 | 20 | 1006.1 |
| 20260902232234 | 87 | 5 | 4.0 | 12.0 | 0.00 | 0.00 | 0.00 | 21 | 1006.1 |
| 20260902231237 | 87 | 80 | 4.0 | 11.0 | 0.00 | 0.00 | 0.00 | 20 | 1006.2 |
| 20260902230246 | 88 | 87 | 5.0 | 15.0 | 0.00 | 0.00 | 0.00 | 20 | 1006.2 |
| 20260902225249 | 89 | 67 | 7.0 | 18.0 | 0.00 | 0.00 | 0.00 | 18 | 1006.2 |
| 20260902224258 | 90 | 156 | 5.0 | 14.0 | 0.00 | 0.00 | 0.00 | 17 | 1006.2 |
| 20260902223251 | 90 | 62 | 4.0 | 15.0 | 0.00 | 0.00 | 0.00 | 17 | 1006.2 |
| 20260902222249 | 89 | 150 | 8.0 | 12.0 | 0.00 | 0.00 | 0.00 | 18 | 1006.5 |
| 20260902221255 | 89 | 70 | 6.0 | 14.0 | 0.00 | 0.00 | 0.00 | 19 | 1006.7 |
| 20260902220239 | 90 | 127 | 7.0 | 14.0 | 0.00 | 0.00 | 0.00 | 18 | 1006.7 |
| 20260902215248 | 90 | 138 | 7.0 | 16.0 | 0.00 | 0.00 | 0.00 | 17 | 1006.8 |
| 20260902214248 | 90 | 66 | 8.0 | 17.0 | 0.00 | 0.00 | 0.00 | 17 | 1006.9 |
| 20260902213253 | 90 | 150 | 5.0 | 19.0 | 0.00 | 0.00 | 0.00 | 17 | 1006.9 |
| 20260902212255 | 89 | 103 | 9.0 | 19.0 | 0.00 | 0.00 | 0.00 | 17 | 1007.2 |
| 20260902211251 | 89 | 113 | 8.0 | 16.0 | 0.00 | 0.00 | 0.00 | 18 | 1007.5 |
| 20260902210256 | 88 | 116 | 6.0 | 15.0 | 0.00 | 0.00 | 0.00 | 19 | 1007.5 |
| 20260902205248 | 88 | 79 | 6.0 | 12.0 | 0.00 | 0.00 | 0.00 | 18 | 1007.7 |
| 20260902204307 | 89 | 76 | 8.0 | 11.0 | 0.00 | 0.00 | 0.00 | 19 | 1008.0 |
| 20260902203250 | 88 | 82 | 6.0 | 15.0 | 0.00 | 0.00 | 0.00 | 19 | 1008.0 |
| 20260902202251 | 88 | 80 | 5.0 | 13.0 | 0.00 | 0.00 | 0.00 | 18 | 1008.1 |
| 20260902201253 | 88 | 107 | 4.0 | 15.0 | 0.00 | 0.00 | 0.00 | 18 | 1008.2 |
| 20260902200240 | 88 | 51 | 4.0 | 9.0 | 0.00 | 0.00 | 0.00 | 18 | 1008.2 |
| 20260902195245 | 87 | 78 | 6.0 | 13.0 | 0.00 | 0.00 | 0.00 | 18 | 1008.5 |
| 20260902194312 | 87 | 25 | 3.0 | 10.0 | 0.00 | 0.00 | 0.00 | 19 | 1008.6 |
| 20260902193235 | 87 | 57 | 8.0 | 14.0 | 0.00 | 0.00 | 0.00 | 20 | 1008.6 |
| 20260902192242 | 86 | 29 | 7.0 | 14.0 | 0.00 | 0.00 | 0.00 | 18 | 1008.8 |
| 20260902191242 | 86 | 9 | 3.0 | 12.0 | 0.00 | 0.00 | 0.00 | 18 | 1009.2 |
| 20260902190311 | 86 | 15 | 4.0 | 11.0 | 0.00 | 0.00 | 0.00 | 18 | 1009.2 |
| 20260902185252 | 86 | 96 | 6.0 | 11.0 | 0.00 | 0.00 | 0.00 | 21 | 1009.3 |
| 20260902184309 | 85 | 74 | 5.0 | 13.0 | 0.00 | 0.00 | 0.00 | 19 | 1009.4 |
| 20260902183250 | 84 | 5 | 6.0 | 13.0 | 0.00 | 0.00 | 0.00 | 21 | 1009.4 |
| 20260902182238 | 84 | 45 | 6.0 | 12.0 | 0.00 | 0.00 | 0.00 | 20 | 1009.9 |
| 20260902181243 | 85 | 84 | 6.0 | 11.0 | 0.00 | 0.00 | 0.00 | 21 | 1010.0 |